Flag for U.S.A. Weather past 2 weeks in Long Beach, California, U.S.A.

Now
69 °F

Overcast.


Feels Like: 69 °F
Forecast: 64 / 76 °F
Wind: No wind

Location: Long Beach Airport

Current Time: Aug 23, 2014 at 4:49:46 AM

Latest Report: Aug 23, 2014 at 3:53 AM


Visibility: 10 mi

Pressure: 29.93 "Hg

Humidity: 79%

Dew point: 62 °F

Location of Long BeachLocation

Historic Weather in Long Beach — Graph

°F

Long Beach temperature yesterday

Maximum temperature yesterday: 85 °F (at 3:53 PM)
Minimum temperature yesterday: 68 °F (at 2:53 AM)
Average temperature yesterday: 73 °F

Past Weeks' High & Low Weather Summary

 TemperatureHumidityPressure
High91 °F (Aug 16, 1:53 PM)91% (Aug 15, 2:53 AM)30.01 "Hg (Aug 15, 2:53 AM)
Low64 °F (Aug 15, 4:53 AM)28% (Aug 16, 1:53 PM)29.78 "Hg (Aug 18, 4:53 PM)
Average73 °F70%29.92 "Hg
* Reported Aug 8 3:53 AM — Aug 23 3:53 AM, Long Beach, Weather by CustomWeather, © 2014

Note: Actual official high and low records may vary slightly from our data, if they occured in-between our weather recording intervals... More about our weather records

Advertising

Long Beach weather history for previous 24 hours

 ConditionsComfort  
Time TempWeatherWind HumidityBarometerVisibility
3:53 AM
Aug 23
69 °FOvercast.No wind79%29.93 "Hg10 mi
2:53 AM69 °FOvercast.No wind76%29.94 "Hg10 mi
1:53 AM69 °FOvercast.No wind79%29.94 "Hg10 mi
12:53 AM69 °FOvercast.3 mph79%29.94 "Hg10 mi
11:53 PM
Aug 22
69 °FOvercast.No wind79%29.95 "Hg10 mi
11:01 PM68 °FPassing clouds.5 mph83%29.95 "Hg10 mi
10:53 PM68 °FPassing clouds.3 mph82%29.95 "Hg10 mi
9:53 PM69 °FClear.8 mph81%29.95 "Hg10 mi
8:53 PM70 °FClear.9 mph79%29.93 "Hg10 mi
7:53 PM71 °FSunny.8 mph76%29.92 "Hg10 mi
6:53 PM75 °FSunny.10 mph69%29.91 "Hg10 mi
5:53 PM79 °FSunny.7 mph60%29.90 "Hg10 mi
4:53 PM83 °FSunny.9 mph53%29.90 "Hg10 mi
3:53 PM85 °FSunny.5 mph50%29.90 "Hg10 mi
2:53 PM80 °FSunny.8 mph58%29.93 "Hg10 mi
1:53 PM79 °FSunny.8 mph60%29.94 "Hg10 mi
12:53 PM77 °FPassing clouds.9 mph64%29.97 "Hg10 mi
11:53 AM76 °FSunny.6 mph67%29.97 "Hg10 mi
10:53 AM75 °FScattered clouds.7 mph69%29.98 "Hg9 mi
9:53 AM75 °FOvercast.7 mph69%29.97 "Hg10 mi
9:01 AM72 °FOvercast.No wind78%29.96 "Hg8 mi
7:53 AM70 °FOvercast.3 mph81%29.96 "Hg10 mi
6:53 AM68 °FPassing clouds.3 mph87%29.94 "Hg10 mi
5:53 AM68 °FClear.3 mph82%29.93 "Hg10 mi
4:53 AM68 °FClear.No wind84%29.92 "Hg10 mi
Weather by CustomWeather, © 2014

See weather overviewHow to use our weather pages